Year,Month,Day,Hour,Minute,Value (Times are PST for barometer in hPa)
2022,05,22,00,00,972.40
2022,05,22,00,01,970.19
2022,05,22,00,02,969.55
2022,05,22,00,03,969.49
2022,05,22,00,04,969.49
2022,05,22,00,05,969.49
2022,05,22,00,06,969.49
2022,05,22,00,07,969.49
2022,05,22,00,08,969.49
2022,05,22,00,09,969.49
2022,05,22,00,10,969.49
2022,05,22,00,11,969.49
2022,05,22,00,12,969.49
2022,05,22,00,13,969.49
2022,05,22,00,14,969.49
2022,05,22,00,15,969.49
2022,05,22,00,16,969.49
2022,05,22,00,17,969.49
2022,05,22,00,18,969.49
2022,05,22,00,19,969.49
2022,05,22,00,20,969.49
2022,05,22,00,21,969.49
2022,05,22,00,22,969.49
2022,05,22,00,23,969.49
2022,05,22,00,24,969.49
2022,05,22,00,25,969.49
2022,05,22,00,26,969.49
2022,05,22,00,27,969.49
2022,05,22,00,28,969.49
2022,05,22,00,29,969.49
2022,05,22,00,30,969.49
2022,05,22,00,31,969.49
2022,05,22,00,32,969.49
2022,05,22,00,33,969.49
2022,05,22,00,34,987.47
2022,05,22,00,35,990.02
2022,05,22,00,36,990.08
2022,05,22,00,37,995.60
2022,05,22,00,38,996.21
2022,05,22,00,39,994.42
2022,05,22,00,40,994.21
2022,05,22,00,41,994.21
2022,05,22,00,42,997.99
2022,05,22,00,43,998.41
2022,05,22,00,44,998.41
2022,05,22,00,45,998.41
2022,05,22,00,46,997.83
2022,05,22,00,47,997.77
2022,05,22,00,48,1002.00
2022,05,22,00,49,1002.14
2022,05,22,00,50,1002.10
2022,05,22,00,51,1002.10
2022,05,22,00,52,1002.10
2022,05,22,00,53,1002.10
2022,05,22,00,54,1002.10
2022,05,22,00,55,1002.10
2022,05,22,00,56,1002.10
2022,05,22,00,57,1002.10
2022,05,22,00,58,1002.10
2022,05,22,00,59,992.71
2022,05,22,01,00,991.67
2022,05,22,01,01,991.67
2022,05,22,01,02,991.67
2022,05,22,01,03,991.67
2022,05,22,01,04,991.67
2022,05,22,01,05,991.67
2022,05,22,01,06,991.67
2022,05,22,01,07,991.67
2022,05,22,01,08,991.67
2022,05,22,01,09,991.67
2022,05,22,01,10,991.67
2022,05,22,01,11,991.67
2022,05,22,01,12,991.67
2022,05,22,01,13,991.67
2022,05,22,01,14,983.12
2022,05,22,01,15,981.61
2022,05,22,01,16,981.61
2022,05,22,01,17,982.50
2022,05,22,01,18,982.66
2022,05,22,01,19,982.66
2022,05,22,01,20,982.66
2022,05,22,01,21,982.66
2022,05,22,01,22,982.66
2022,05,22,01,23,982.66
2022,05,22,01,24,982.66
2022,05,22,01,25,982.66
2022,05,22,01,26,982.66
2022,05,22,01,27,982.66
2022,05,22,01,28,982.66
2022,05,22,01,29,982.66
2022,05,22,01,30,982.66
2022,05,22,01,31,982.66
2022,05,22,01,32,982.66
2022,05,22,01,33,977.37
2022,05,22,01,34,977.08
2022,05,22,01,35,977.08
2022,05,22,01,36,977.08
2022,05,22,01,37,977.08
2022,05,22,01,38,968.09
2022,05,22,01,39,967.09
2022,05,22,01,40,967.09
2022,05,22,01,41,967.09
2022,05,22,01,42,967.09
2022,05,22,01,43,967.09
2022,05,22,01,44,967.09
2022,05,22,01,45,967.09
2022,05,22,01,46,967.09
2022,05,22,01,47,967.09
2022,05,22,01,48,967.09
2022,05,22,01,49,967.09
2022,05,22,01,50,967.09
2022,05,22,01,51,967.09
2022,05,22,01,52,967.09
2022,05,22,01,53,967.09
2022,05,22,01,54,967.09
2022,05,22,01,55,967.09
2022,05,22,01,56,967.09
2022,05,22,01,57,967.09
2022,05,22,01,58,967.09
2022,05,22,01,59,967.09
2022,05,22,02,00,967.09
2022,05,22,02,01,967.09
2022,05,22,02,02,967.09
2022,05,22,02,03,967.09
2022,05,22,02,04,967.09
2022,05,22,02,05,967.09
2022,05,22,02,06,967.09
2022,05,22,02,07,967.09
2022,05,22,02,08,967.09
2022,05,22,02,09,992.23
2022,05,22,02,10,995.19
2022,05,22,02,11,995.19
2022,05,22,02,12,1001.93
2022,05,22,02,13,1002.30
2022,05,22,02,14,1002.30
2022,05,22,02,15,1002.30
2022,05,22,02,16,1002.30
2022,05,22,02,17,1002.30
2022,05,22,02,18,1002.30
2022,05,22,02,19,1002.30
2022,05,22,02,20,1002.30
2022,05,22,02,21,1002.30
2022,05,22,02,22,1002.30
2022,05,22,02,23,1002.30
2022,05,22,02,24,1003.94
2022,05,22,02,25,1004.03
2022,05,22,02,26,1004.03
2022,05,22,02,27,989.80
2022,05,22,02,28,988.22
2022,05,22,02,29,992.71
2022,05,22,02,30,992.96
2022,05,22,02,31,992.96
2022,05,22,02,32,992.96
2022,05,22,02,33,990.90
2022,05,22,02,34,990.79
2022,05,22,02,35,989.76
2022,05,22,02,36,989.64
2022,05,22,02,37,989.64
2022,05,22,02,38,989.64
2022,05,22,02,39,989.64
2022,05,22,02,40,989.64
2022,05,22,02,41,989.64
2022,05,22,02,42,989.64
2022,05,22,02,43,989.64
2022,05,22,02,44,989.64
2022,05,22,02,45,989.64
2022,05,22,02,46,989.64
2022,05,22,02,47,989.64
2022,05,22,02,48,989.64
2022,05,22,02,49,994.54
2022,05,22,02,50,995.09
2022,05,22,02,51,995.09
2022,05,22,02,52,995.09
2022,05,22,02,53,995.09
2022,05,22,02,54,995.09
2022,05,22,02,55,995.09
2022,05,22,02,56,995.09
2022,05,22,02,57,995.09
2022,05,22,02,58,999.94
2022,05,22,02,59,1000.48
2022,05,22,03,00,1000.48
2022,05,22,03,01,1001.42
2022,05,22,03,02,1001.52
2022,05,22,03,06,1003.50
2022,05,22,03,07,1005.01
2022,05,22,03,08,1005.01
2022,05,22,03,09,1005.01
2022,05,22,03,10,1005.01
2022,05,22,03,11,1005.01
2022,05,22,03,12,1005.01
2022,05,22,03,13,1005.01
2022,05,22,03,14,1005.01
2022,05,22,03,15,1005.01
2022,05,22,03,16,1005.01
2022,05,22,03,17,1004.91
2022,05,22,03,18,1003.09
2022,05,22,03,19,1003.20
2022,05,22,03,20,1002.82
2022,05,22,03,21,1002.51
2022,05,22,03,22,1002.51
2022,05,22,03,23,1002.51
2022,05,22,03,24,1002.51
2022,05,22,03,25,1002.51
2022,05,22,03,26,1002.80
2022,05,22,03,27,1005.39
2022,05,22,03,28,1005.44
2022,05,22,03,29,1006.40
2022,05,22,03,30,1006.28
2022,05,22,03,31,1005.12
2022,05,22,03,32,1004.57
2022,05,22,03,33,1004.57
2022,05,22,03,34,1004.57
2022,05,22,03,35,1004.57
2022,05,22,03,36,1004.57
2022,05,22,03,37,1004.57
2022,05,22,03,38,1004.57
2022,05,22,03,39,1004.53
2022,05,22,03,40,1003.69
2022,05,22,03,41,1003.69
2022,05,22,03,42,1003.69
2022,05,22,03,43,1003.69
2022,05,22,03,44,1003.69
2022,05,22,03,45,1003.69
2022,05,22,03,46,1003.69
2022,05,22,03,47,1003.69
2022,05,22,03,48,1003.91
2022,05,22,03,49,1008.16
2022,05,22,03,50,1008.20
2022,05,22,03,51,1007.72
2022,05,22,03,52,1007.82
2022,05,22,03,53,1007.82
2022,05,22,03,54,1007.82
2022,05,22,03,55,1007.83
2022,05,22,03,56,1007.96
2022,05,22,03,57,1008.03
2022,05,22,03,58,1007.96
2022,05,22,03,59,1007.96
2022,05,22,04,00,1007.96
2022,05,22,04,01,1007.96
2022,05,22,04,02,1007.96
2022,05,22,04,03,1007.96
2022,05,22,04,04,1007.96
2022,05,22,04,05,1007.96
2022,05,22,04,06,1007.96
2022,05,22,04,07,1007.96
2022,05,22,04,08,1007.96
2022,05,22,04,09,1007.96
2022,05,22,04,10,1007.96
2022,05,22,04,11,1007.96
2022,05,22,04,12,1007.96
2022,05,22,04,13,1007.96
2022,05,22,04,14,1007.96
2022,05,22,04,15,1007.96
2022,05,22,04,16,1007.96
2022,05,22,04,17,1007.96
2022,05,22,04,18,1007.96
2022,05,22,04,19,1007.96
2022,05,22,04,20,1007.96
2022,05,22,04,21,1007.96
2022,05,22,04,22,1007.96
2022,05,22,04,23,1007.96
2022,05,22,04,24,1007.96
2022,05,22,04,25,1007.96
2022,05,22,04,26,1007.96
2022,05,22,04,27,1007.96
2022,05,22,04,28,1007.26
2022,05,22,04,29,993.94
2022,05,22,04,30,993.94
2022,05,22,04,31,993.94
2022,05,22,04,32,993.94
2022,05,22,04,33,993.80
2022,05,22,04,34,991.13
2022,05,22,04,35,991.13
2022,05,22,04,36,991.13
2022,05,22,04,37,991.13
2022,05,22,04,38,991.13
2022,05,22,04,39,991.13
2022,05,22,04,40,991.13
2022,05,22,04,41,991.13
2022,05,22,04,42,991.13
2022,05,22,04,43,991.13
2022,05,22,04,44,991.13
2022,05,22,04,45,991.13
2022,05,22,04,46,991.13
2022,05,22,04,47,991.13
2022,05,22,04,48,991.13
2022,05,22,04,49,991.13
2022,05,22,04,50,991.13
2022,05,22,04,51,991.13
2022,05,22,04,52,991.13
2022,05,22,04,53,991.13
2022,05,22,04,54,991.05
2022,05,22,04,55,989.56
2022,05,22,04,56,989.91
2022,05,22,04,57,989.91
2022,05,22,04,58,989.90
2022,05,22,04,59,989.64
2022,05,22,05,00,989.59
2022,05,22,05,01,988.62
2022,05,22,05,02,988.62
2022,05,22,05,03,988.62
2022,05,22,05,04,988.62
2022,05,22,05,05,988.62
2022,05,22,05,06,988.38
2022,05,22,05,07,983.78
2022,05,22,05,08,983.78
2022,05,22,05,09,983.78
2022,05,22,05,10,983.78
2022,05,22,05,11,983.78
2022,05,22,05,12,983.78
2022,05,22,05,13,983.78
2022,05,22,05,14,983.78
2022,05,22,05,15,983.78
2022,05,22,05,16,983.78
2022,05,22,05,17,983.78
2022,05,22,05,18,984.07
2022,05,22,05,19,989.50
2022,05,22,05,20,989.75
2022,05,22,05,21,994.55
2022,05,22,05,22,994.55
2022,05,22,05,23,994.36
2022,05,22,05,24,990.82
2022,05,22,05,25,990.82
2022,05,22,05,26,990.82
2022,05,22,05,27,990.92
2022,05,22,05,28,992.89
2022,05,22,05,29,993.01
2022,05,22,05,30,995.26
2022,05,22,05,31,995.26
2022,05,22,05,32,995.26
2022,05,22,05,33,995.26
2022,05,22,05,34,995.26
2022,05,22,05,35,995.26
2022,05,22,05,36,995.26
2022,05,22,05,37,995.26
2022,05,22,05,38,995.26
2022,05,22,05,39,995.26
2022,05,22,05,40,995.26
2022,05,22,05,41,995.26
2022,05,22,05,42,995.26
2022,05,22,05,43,995.26
2022,05,22,05,44,995.26
2022,05,22,05,45,995.26
2022,05,22,05,46,995.26
2022,05,22,05,47,995.26
2022,05,22,05,48,995.26
2022,05,22,05,49,995.26
2022,05,22,05,50,995.26
2022,05,22,05,51,995.26
2022,05,22,05,52,993.36
2022,05,22,05,53,994.01
2022,05,22,05,54,993.53
2022,05,22,05,55,993.53
2022,05,22,05,56,993.53
2022,05,22,05,57,990.45
2022,05,22,05,58,990.45
2022,05,22,05,59,990.45
2022,05,22,06,00,990.45
2022,05,22,06,01,990.45
2022,05,22,06,02,990.45
2022,05,22,06,03,990.45
2022,05,22,06,04,990.29
2022,05,22,06,05,987.27
2022,05,22,06,06,987.27
2022,05,22,06,07,987.27
2022,05,22,06,08,987.29
2022,05,22,06,09,987.61
2022,05,22,06,10,987.61
2022,05,22,06,11,989.74
2022,05,22,06,12,989.74
2022,05,22,06,13,989.74
2022,05,22,06,14,989.47
2022,05,22,06,15,989.57
2022,05,22,06,16,989.57
2022,05,22,06,17,989.57
2022,05,22,06,18,989.57
2022,05,22,06,19,989.66
2022,05,22,06,20,991.33
2022,05,22,06,21,991.43
2022,05,22,06,22,991.47
2022,05,22,06,23,992.14
2022,05,22,06,24,992.14
2022,05,22,06,25,992.14
2022,05,22,06,26,992.14
2022,05,22,06,27,992.14
2022,05,22,06,28,992.14
2022,05,22,06,29,992.14
2022,05,22,06,30,992.14
2022,05,22,06,31,992.14
2022,05,22,06,32,992.14
2022,05,22,06,33,992.14
2022,05,22,06,34,992.14
2022,05,22,06,35,992.14
2022,05,22,06,36,992.20
2022,05,22,06,37,993.23
2022,05,22,06,38,993.63
2022,05,22,06,39,993.63
2022,05,22,06,40,993.63
2022,05,22,06,41,993.63
2022,05,22,06,42,993.63
2022,05,22,06,43,987.57
2022,05,22,06,44,987.57
2022,05,22,06,45,987.57
2022,05,22,06,46,987.57
2022,05,22,06,47,989.33
2022,05,22,06,48,989.33
2022,05,22,06,49,989.33
2022,05,22,06,50,989.33
2022,05,22,06,51,989.33
2022,05,22,06,52,989.33
2022,05,22,06,53,989.33
2022,05,22,06,54,989.33
2022,05,22,06,55,989.32
2022,05,22,06,56,989.16
2022,05,22,06,57,989.16
2022,05,22,06,58,996.51
2022,05,22,06,59,996.51
2022,05,22,07,00,996.51
2022,05,22,07,01,996.51
2022,05,22,07,02,996.51
2022,05,22,07,03,993.70
2022,05,22,07,04,993.70
2022,05,22,07,05,993.70
2022,05,22,07,06,993.70
2022,05,22,07,07,993.70
2022,05,22,07,08,993.70
2022,05,22,07,09,993.70
2022,05,22,07,10,993.70
2022,05,22,07,11,993.13
2022,05,22,07,12,993.13
2022,05,22,07,13,993.13
2022,05,22,07,14,993.13
2022,05,22,07,15,993.13
2022,05,22,07,16,993.13
2022,05,22,07,17,993.13
2022,05,22,07,18,993.13
2022,05,22,07,19,991.61
2022,05,22,07,20,991.77
2022,05,22,07,21,991.77
2022,05,22,07,22,993.30
2022,05,22,07,23,993.30
2022,05,22,07,24,993.30
2022,05,22,07,25,993.30
2022,05,22,07,26,993.39
2022,05,22,07,27,995.12
2022,05,22,07,28,995.12
2022,05,22,07,29,995.12
2022,05,22,07,30,995.12
2022,05,22,07,31,995.12
2022,05,22,07,32,995.12
2022,05,22,07,33,995.12
2022,05,22,07,34,995.12
2022,05,22,07,35,993.74
2022,05,22,07,36,993.74
2022,05,22,07,37,993.74
2022,05,22,07,38,993.74
2022,05,22,07,39,993.13
2022,05,22,07,40,993.13
2022,05,22,07,41,993.13
2022,05,22,07,42,993.13
2022,05,22,07,43,993.13
2022,05,22,07,44,993.13
2022,05,22,07,45,993.13
2022,05,22,07,46,993.13
2022,05,22,07,47,993.13
2022,05,22,07,48,993.13
2022,05,22,07,49,993.13
2022,05,22,07,50,991.84
2022,05,22,07,51,991.84
2022,05,22,07,52,991.84
2022,05,22,07,53,991.84
2022,05,22,07,54,991.84
2022,05,22,07,55,988.05
2022,05,22,07,56,988.05
2022,05,22,07,57,988.05
2022,05,22,07,58,988.05
2022,05,22,07,59,987.47
2022,05,22,08,00,987.47
2022,05,22,08,01,987.47
2022,05,22,08,02,991.26
2022,05,22,08,03,991.33
2022,05,22,08,04,991.33
2022,05,22,08,05,991.33
2022,05,22,08,06,991.33
2022,05,22,08,07,988.15
2022,05,22,08,08,988.15
2022,05,22,08,09,988.15
2022,05,22,08,10,988.15
2022,05,22,08,11,990.76
2022,05,22,08,12,990.76
2022,05,22,08,13,990.76
2022,05,22,08,14,986.02
2022,05,22,08,15,986.02
2022,05,22,08,16,986.02
2022,05,22,08,17,987.74
2022,05,22,08,18,987.74
2022,05,22,08,19,987.74
2022,05,22,08,20,987.74
2022,05,22,08,21,987.74
2022,05,22,08,22,987.74
2022,05,22,08,23,987.74
2022,05,22,08,24,987.74
2022,05,22,08,25,982.39
2022,05,22,08,26,982.97
2022,05,22,08,27,983.00
2022,05,22,08,28,981.41
2022,05,22,08,29,981.41
2022,05,22,08,30,981.41
2022,05,22,08,31,977.03
2022,05,22,08,32,976.80
2022,05,22,08,33,976.80
2022,05,22,08,34,976.80
2022,05,22,08,35,976.80
2022,05,22,08,36,976.80
2022,05,22,08,37,976.80
2022,05,22,08,38,976.80
2022,05,22,08,39,976.80
2022,05,22,08,40,976.80
2022,05,22,08,41,976.80
2022,05,22,08,42,976.80
2022,05,22,08,43,976.80
2022,05,22,08,44,976.80
2022,05,22,08,45,976.80
2022,05,22,08,46,976.80
2022,05,22,08,47,976.80
2022,05,22,08,48,976.80
2022,05,22,08,49,976.80
2022,05,22,08,50,976.80
2022,05,22,08,51,976.80
2022,05,22,08,52,976.80
2022,05,22,08,53,976.80
2022,05,22,08,54,976.80
2022,05,22,08,55,976.80
2022,05,22,08,56,976.80
2022,05,22,08,57,976.80
2022,05,22,08,58,976.80
2022,05,22,08,59,976.80
2022,05,22,09,00,976.80
2022,05,22,09,01,1002.51
2022,05,22,09,02,1002.43
2022,05,22,09,03,1000.98
2022,05,22,09,04,1000.98
2022,05,22,09,05,1000.98
2022,05,22,09,06,1000.98
2022,05,22,09,07,1000.98
2022,05,22,09,08,1000.98
2022,05,22,09,09,1000.98
2022,05,22,09,10,998.88
2022,05,22,09,11,998.88
2022,05,22,09,12,998.88
2022,05,22,09,13,998.88
2022,05,22,09,14,998.88
2022,05,22,09,15,998.88
2022,05,22,09,16,996.45
2022,05,22,09,17,996.45
2022,05,22,09,18,996.45
2022,05,22,09,19,996.45
2022,05,22,09,20,996.45
2022,05,22,09,21,996.45
2022,05,22,09,22,996.45
2022,05,22,09,23,996.45
2022,05,22,09,24,996.45
2022,05,22,09,25,996.45
2022,05,22,09,26,996.45
2022,05,22,09,27,996.45
2022,05,22,09,28,996.45
2022,05,22,09,29,993.57
2022,05,22,09,30,993.57
2022,05,22,09,31,993.57
2022,05,22,09,32,989.20
2022,05,22,09,33,989.20
2022,05,22,09,34,989.20
2022,05,22,09,35,989.20
2022,05,22,09,36,989.20
2022,05,22,09,37,989.20
2022,05,22,09,38,989.20
2022,05,22,09,39,989.20
2022,05,22,09,40,989.20
2022,05,22,09,41,989.20
2022,05,22,09,42,989.20
2022,05,22,09,43,989.20
2022,05,22,09,44,989.20
2022,05,22,09,45,989.20
2022,05,22,09,46,989.20
2022,05,22,09,47,989.20
2022,05,22,09,48,989.20
2022,05,22,09,49,976.07
2022,05,22,09,50,975.38
2022,05,22,09,51,975.38
2022,05,22,09,52,975.38
2022,05,22,09,53,975.38
2022,05,22,09,54,975.38
2022,05,22,09,55,975.38
2022,05,22,09,56,975.38
2022,05,22,09,57,975.38
2022,05,22,09,58,975.38
2022,05,22,09,59,975.38
2022,05,22,10,00,975.38
2022,05,22,10,01,975.38
2022,05,22,10,02,975.38
2022,05,22,10,03,975.38
2022,05,22,10,04,975.38
2022,05,22,10,05,975.38
2022,05,22,10,06,975.38
2022,05,22,10,07,975.38
2022,05,22,10,08,975.38
2022,05,22,10,09,975.38
2022,05,22,10,10,975.38
2022,05,22,10,11,975.38
2022,05,22,10,12,975.38
2022,05,22,10,13,975.38
2022,05,22,10,14,975.38
2022,05,22,10,15,975.38
2022,05,22,10,16,975.38
2022,05,22,10,17,975.38
2022,05,22,10,18,975.38
2022,05,22,10,19,975.38
2022,05,22,10,20,975.38
2022,05,22,10,21,975.38
2022,05,22,10,22,959.13
2022,05,22,10,23,959.13
2022,05,22,10,24,959.13
2022,05,22,10,25,959.13
2022,05,22,10,26,959.13
2022,05,22,10,27,959.13
2022,05,22,10,28,959.13
2022,05,22,10,29,959.13
2022,05,22,10,30,959.13
2022,05,22,10,31,959.13
2022,05,22,10,32,959.13
2022,05,22,10,33,917.18
2022,05,22,10,34,914.97
2022,05,22,10,35,936.68
2022,05,22,10,36,936.68
2022,05,22,10,37,936.68
2022,05,22,10,38,936.68
2022,05,22,10,39,936.68
2022,05,22,10,40,936.68
2022,05,22,10,41,936.68
2022,05,22,10,42,936.68
2022,05,22,10,43,936.68
2022,05,22,10,44,936.68
2022,05,22,10,45,936.68
2022,05,22,10,46,936.68
2022,05,22,10,47,936.68
2022,05,22,10,48,936.68
2022,05,22,10,49,936.68
2022,05,22,10,50,936.68
2022,05,22,10,51,936.68
2022,05,22,10,52,936.68
2022,05,22,22,02,918.19
2022,05,22,22,03,918.19
2022,05,22,22,04,918.19
2022,05,22,22,05,918.19
2022,05,22,22,06,918.19
2022,05,22,22,07,918.19
2022,05,22,22,08,941.90
2022,05,22,22,09,944.53
2022,05,22,22,10,944.53
2022,05,22,22,11,944.53
2022,05,22,22,12,944.53
2022,05,22,22,13,944.53
2022,05,22,22,14,944.53
2022,05,22,22,15,944.53
2022,05,22,22,16,944.53
2022,05,22,22,17,944.53
2022,05,22,22,18,944.53
2022,05,22,22,19,944.53
2022,05,22,22,20,941.22
2022,05,22,22,21,940.60
2022,05,22,22,22,940.60
2022,05,22,22,23,940.60
2022,05,22,22,24,940.60
2022,05,22,22,25,940.60
2022,05,22,22,26,940.60
2022,05,22,22,27,940.60
2022,05,22,22,28,940.60
2022,05,22,22,29,940.60
2022,05,22,22,30,940.60
2022,05,22,22,31,940.60
2022,05,22,22,32,940.60
2022,05,22,22,33,940.60
2022,05,22,22,34,940.60
2022,05,22,22,35,940.60
2022,05,22,22,36,940.60
2022,05,22,22,37,940.60
2022,05,22,22,38,940.60
2022,05,22,22,39,940.60
2022,05,22,22,40,940.60
2022,05,22,22,41,940.60
2022,05,22,22,42,940.60
2022,05,22,22,43,940.60
2022,05,22,22,44,940.60
2022,05,22,22,45,940.60
2022,05,22,22,46,940.60
2022,05,22,22,47,940.60
2022,05,22,22,48,940.60
2022,05,22,22,49,940.60
2022,05,22,22,50,940.60
2022,05,22,22,51,940.60
2022,05,22,22,52,940.60
2022,05,22,22,53,940.60
2022,05,22,22,54,940.60
2022,05,22,22,55,940.60
2022,05,22,22,56,940.60
2022,05,22,22,57,940.60
2022,05,22,22,58,940.60
2022,05,22,22,59,940.60
2022,05,22,23,00,940.60
2022,05,22,23,01,940.60
2022,05,22,23,02,920.08
2022,05,22,23,03,916.46
2022,05,22,23,04,916.46
2022,05,22,23,05,916.46
2022,05,22,23,06,916.46
2022,05,22,23,07,916.46
2022,05,22,23,08,916.46
2022,05,22,23,09,916.46
2022,05,22,23,10,916.46
2022,05,22,23,11,916.46
2022,05,22,23,12,916.46
2022,05,22,23,13,916.46
2022,05,22,23,14,916.46
2022,05,22,23,15,916.46
2022,05,22,23,16,916.46
2022,05,22,23,17,916.46
2022,05,22,23,18,916.46
2022,05,22,23,19,916.46
2022,05,22,23,20,916.46
2022,05,22,23,21,916.46
2022,05,22,23,22,916.46
2022,05,22,23,23,916.46
2022,05,22,23,24,916.46
2022,05,22,23,25,916.46
2022,05,22,23,26,916.46
2022,05,22,23,27,916.46
2022,05,22,23,28,916.46
2022,05,22,23,29,916.46
2022,05,22,23,30,952.13
2022,05,22,23,31,958.42
2022,05,22,23,32,958.42
2022,05,22,23,33,958.42
2022,05,22,23,34,958.42
2022,05,22,23,35,958.42
2022,05,22,23,36,958.42
2022,05,22,23,37,958.42
2022,05,22,23,38,958.42
2022,05,22,23,39,958.42
2022,05,22,23,40,958.42
2022,05,22,23,41,958.42
2022,05,22,23,42,958.42
2022,05,22,23,43,958.42
2022,05,22,23,44,958.42
2022,05,22,23,45,958.42
2022,05,22,23,46,958.42
2022,05,22,23,47,958.42
2022,05,22,23,48,958.42
2022,05,22,23,49,958.42
2022,05,22,23,50,958.42
2022,05,22,23,51,958.42
2022,05,22,23,52,958.42
2022,05,22,23,53,958.42
2022,05,22,23,54,958.42
2022,05,22,23,55,958.42
2022,05,22,23,56,958.42
2022,05,22,23,57,958.42
2022,05,22,23,58,958.42
2022,05,22,23,59,958.42
